Temp
-2 -2 -2 -2 -2 -2 -3 -3 -3 -2 -4 -4 -5 -4 -5 -3 -2 -3 -1 1 2 3 5 7 8 9 9 10 10 9 9 12 10 11 12 14 14 16 16 16 16 15 15
-3 -3 -3 -2 -2 -3 -3 -3 -3 -3 -4 -4 -5 -5 -5 -5 -4 -4 -3 -1 0 1 4 5 6 7 8 8 8 9 9 11 11 11 11 12 14 15 16 15 15 15 15
-3 -4 -4 -3 -3 -3 -3 -4 -4 -3 -4 -4 -4 -5 -5 -4 -4 -4 -4 -3 -1 -1 1 4 6 6 6 8 7 9 9 10 11 10 10 11 12 14 15 15 15 14 14
-5 -5 -4 -4 -4 -4 -4 -4 -4 -4 -4 -4 -5 -6 -7 -6 -6 -5 -5 -4 -3 -2 -1 1 3 5 5 7 8 8 8 10 11 11 11 11 12 13 14 14 15 14 14
-6 -5 -5 -5 -5 -5 -4 -4 -4 -5 -5 -6 -5 -6 -7 -7 -6 -5 -5 -5 -4 -3 -3 -2 -1 -1 0 4 5 7 8 9 10 10 10 11 10 11 13 14 15 14 14
-6 -6 -5 -5 -5 -5 -5 -5 -5 -5 -5 -6 -6 -6 -6 -6 -6 -6 -5 -5 -5 -4 -3 -3 -3 -2 -1 1 0 1 4 8 9 10 10 10 11 11 12 13 14 11 11
-7 -6 -6 -6 -6 -6 -6 -5 -5 -5 -6 -6 -6 -6 -6 -7 -6 -6 -5 -6 -6 -5 -4 -3 -3 -3 -3 -1 -1 -0 1 3 6 8 7 10 10 10 11 12 10 10 10
-6 -6 -7 -7 -6 -6 -6 -6 -6 -6 -6 -7 -6 -6 -6 -7 -7 -6 -5 -6 -6 -6 -5 -5 -4 -4 -4 -3 -2 -1 -1 1 1 3 3 6 4 8 9 10 10 10 10
-7 -7 -7 -7 -7 -6 -6 -6 -6 -6 -6 -7 -7 -7 -6 -6 -6 -6 -6 -6 -7 -6 -7 -7 -5 -5 -5 -3 -2 -2 -2 -1 -1 -0 -1 1 1 2 3 5 6 9 8
-7 -8 -8 -7 -7 -7 -7 -7 -7 -7 -7 -7 -7 -7 -8 -8 -7 -7 -7 -7 -7 -6 -7 -7 -7 -7 -5 -3 -4 -4 -3 -3 -2 -2 -1 -1 -0 1 1 1 0 4 3
-8 -8 -7 -7 -7 -8 -7 -7 -7 -7 -7 -8 -8 -8 -8 -9 -9 -8 -8 -8 -8 -8 -8 -8 -8 -7 -6 -6 -6 -5 -6 -5 -3 -3 -3 -2 -2 -1 -0 -0 -1 1 0
-8 -7 -7 -7 -7 -7 -7 -7 -7 -7 -7 -8 -8 -8 -8 -9 -9 -9 -9 -9 -8 -8 -8 -8 -9 -8 -8 -7 -7 -7 -6 -5 -5 -5 -5 -5 -4 -4 -4 -3 -2 -2 -1
-7 -7 -7 -7 -7 -7 -7 -7 -7 -7 -8 -8 -8 -8 -9 -9 -9 -9 -9 -9 -9 -9 -9 -9 -8 -8 -7 -7 -7 -7 -7 -7 -7 -6 -7 -7 -7 -7 -6 -5 -5 -4 -3
-7 -6 -7 -6 -7 -7 -7 -7 -8 -8 -9 -10 -10 -10 -10 -10 -10 -9 -9 -9 -8 -8 -8 -8 -8 -8 -8 -8 -8 -8 -8 -9 -8 -9 -9 -9 -7 -6 -6 -6 -6 -4 -3
-7 -6 -6 -7 -7 -7 -7 -7 -8 -8 -9 -9 -10 -11 -12 -12 -12 -11 -10 -10 -10 -9 -8 -7 -7 -8 -8 -9 -9 -9 -9 -9 -9 -10 -10 -9 -9 -8 -7 -8 -8 -7 -7
-7 -6 -6 -7 -7 -8 -8 -9 -9 -9 -10 -9 -10 -10 -10 -11 -11 -10 -11 -10 -10 -9 -9 -9 -10 -10 -10 -11 -10 -10 -10 -10 -10 -10 -10 -10 -10 -10 -10 -10 -9 -9 -9
-7 -7 -7 -6 -7 -7 -7 -8 -9 -10 -10 -10 -10 -10 -10 -10 -11 -11 -11 -11 -10 -10 -10 -10 -11 -12 -12 -12 -12 -12 -12 -12 -11 -11 -11 -11 -11 -11 -11 -12 -13 -12 -10
-8 -8 -7 -7 -7 -7 -7 -8 -8 -9 -9 -10 -10 -10 -11 -11 -11 -11 -11 -11 -11 -11 -13 -13 -13 -13 -13 -13 -13 -13 -13 -12 -12 -12 -12 -12 -12 -12 -12 -12 -13 -12 -12
-8 -8 -8 -8 -8 -8 -8 -9 -9 -9 -9 -10 -10 -10 -10 -11 -11 -11 -11 -12 -12 -13 -14 -14 -15 -15 -15 -15 -14 -14 -14 -14 -14 -13 -13 -13 -12 -12 -12 -13 -12 -12 -13
-8 -8 -8 -8 -8 -8 -8 -9 -9 -9 -9 -10 -10 -10 -10 -11 -11 -11 -12 -13 -13 -14 -15 -15 -15 -16 -16 -16 -16 -15 -15 -14 -14 -14 -14 -14 -14 -13 -13 -13 -13 -15 -14
-8 -8 -8 -8 -8 -8 -9 -9 -9 -10 -10 -11 -11 -11 -11 -12 -12 -13 -13 -14 -14 -14 -15 -16 -16 -16 -16 -16 -16 -16 -15 -15 -15 -15 -15 -15 -15 -14 -14 -14 -14 -14 -15
-8 -8 -9 -9 -9 -9 -10 -10 -10 -11 -11 -12 -12 -13 -13 -13 -13 -13 -14 -14 -15 -15 -15 -16 -16 -17 -17 -17 -17 -17 -17 -17 -16 -16 -16 -16 -15 -15 -15 -15 -14 -15 -15
-9 -10 -10 -10 -10 -10 -11 -12 -12 -12 -13 -13 -13 -13 -14 -14 -14 -15 -15 -15 -15 -15 -16 -16 -16 -16 -17 -17 -17 -18 -18 -18 -18 -18 -17 -17 -16 -16 -16 -16 -15 -15 -15
-10 -11 -11 -12 -12 -13 -13 -14 -14 -15 -15 -15 -16 -16 -16 -16 -16 -16 -16 -16 -16 -17 -17 -17 -17 -17 -17 -17 -17 -18 -18 -19 -19 -18 -18 -18 -17 -17 -17 -16 -16 -16 -15
-11 -11 -12 -13 -14 -14 -15 -15 -16 -16 -17 -17 -17 -18 -18 -18 -18 -18 -18 -18 -18 -18 -18 -18 -18 -18 -18 -18 -18 -18 -18 -18 -19 -19 -19 -18 -18 -18 -18 -17 -17 -16 -16
-12 -12 -13 -14 -14 -15 -15 -16 -16 -17 -17 -18 -18 -18 -18 -19 -19 -19 -19 -19 -19 -19 -19 -19 -19 -19 -19 -18 -19 -18 -18 -18 -18 -19 -19 -19 -19 -18 -18 -18 -17 -17 -17
Height
1502 1497 1493 1488 1483 1479 1474 1470 1465 1460 1453 1445 1437 1428 1419 1410 1402 1395 1389 1385 1381 1379 1379 1381 1382 1387 1388 1390 1392 1396 1399 1400 1404 1409 1415 1417 1421 1423 1426 1430 1433 1435 1439
1501 1497 1493 1487 1482 1478 1474 1470 1464 1458 1453 1445 1437 1428 1420 1411 1402 1395 1388 1383 1378 1373 1372 1374 1375 1377 1380 1382 1384 1385 1386 1390 1393 1394 1404 1408 1412 1414 1417 1420 1423 1427 1429
1501 1499 1492 1485 1481 1477 1474 1469 1464 1459 1453 1445 1437 1428 1419 1411 1404 1397 1390 1384 1379 1372 1367 1368 1369 1369 1371 1374 1377 1377 1379 1381 1383 1388 1392 1400 1403 1402 1406 1409 1413 1418 1419
1503 1498 1490 1485 1480 1477 1473 1468 1463 1458 1452 1445 1438 1432 1423 1415 1407 1400 1393 1387 1381 1373 1367 1363 1363 1364 1363 1363 1365 1369 1370 1373 1372 1377 1381 1383 1386 1391 1395 1397 1402 1407 1409
1503 1496 1489 1485 1481 1478 1473 1468 1464 1458 1452 1447 1441 1434 1425 1416 1409 1401 1395 1389 1382 1376 1369 1362 1359 1359 1361 1358 1358 1359 1362 1365 1366 1369 1371 1371 1373 1377 1381 1387 1391 1397 1399
1502 1495 1489 1486 1482 1478 1473 1469 1465 1459 1454 1449 1443 1435 1428 1420 1414 1408 1400 1391 1386 1378 1372 1368 1361 1360 1358 1357 1355 1353 1354 1356 1354 1357 1360 1362 1364 1367 1373 1377 1380 1385 1388
1500 1494 1490 1487 1483 1479 1474 1470 1465 1460 1456 1451 1444 1438 1430 1424 1418 1412 1404 1398 1390 1382 1376 1369 1367 1363 1359 1355 1354 1352 1348 1347 1345 1345 1337 1345 1351 1356 1361 1364 1372 1375 1375
1498 1494 1491 1488 1484 1480 1476 1471 1466 1461 1456 1451 1446 1440 1434 1427 1421 1416 1410 1403 1396 1388 1381 1375 1372 1368 1363 1358 1356 1352 1349 1345 1347 1343 1344 1342 1346 1345 1350 1354 1360 1363 1368
1498 1495 1492 1489 1485 1481 1477 1472 1468 1463 1459 1453 1448 1443 1437 1432 1426 1420 1414 1408 1401 1393 1388 1383 1377 1372 1370 1362 1356 1350 1351 1351 1348 1348 1347 1343 1346 1341 1339 1343 1349 1351 1357
1499 1496 1493 1490 1487 1483 1479 1475 1472 1467 1463 1459 1454 1449 1443 1438 1432 1427 1421 1415 1409 1403 1396 1391 1386 1381 1372 1364 1364 1362 1357 1356 1353 1348 1345 1346 1341 1343 1341 1343 1345 1341 1350
1500 1498 1495 1492 1489 1486 1483 1479 1476 1472 1468 1463 1458 1454 1449 1445 1439 1434 1427 1420 1415 1411 1404 1397 1391 1387 1383 1379 1374 1368 1366 1365 1357 1355 1353 1348 1345 1347 1344 1343 1351 1337 1343
1502 1500 1497 1494 1492 1490 1487 1483 1480 1476 1472 1468 1464 1459 1455 1449 1445 1439 1434 1429 1424 1418 1412 1407 1401 1396 1393 1388 1381 1380 1380 1375 1367 1364 1362 1361 1350 1351 1350 1346 1339 1346 1339
1503 1501 1499 1497 1495 1492 1490 1486 1483 1479 1475 1471 1468 1464 1460 1455 1451 1446 1441 1436 1431 1425 1420 1416 1410 1404 1399 1392 1388 1387 1383 1377 1370 1368 1373 1370 1362 1357 1356 1351 1346 1338 1338
1504 1502 1500 1499 1497 1494 1491 1488 1484 1481 1477 1474 1470 1466 1463 1459 1453 1449 1445 1441 1437 1431 1426 1421 1416 1412 1405 1400 1394 1389 1382 1378 1374 1376 1376 1373 1363 1355 1354 1350 1346 1339 1334
1504 1503 1501 1500 1498 1495 1493 1490 1487 1484 1480 1476 1472 1469 1465 1461 1457 1454 1449 1444 1439 1435 1430 1425 1418 1412 1407 1403 1399 1392 1387 1382 1377 1378 1374 1369 1363 1359 1353 1354 1351 1339 1337
1504 1503 1502 1500 1499 1497 1495 1492 1489 1486 1484 1480 1476 1472 1468 1465 1461 1457 1453 1449 1443 1438 1432 1425 1421 1418 1413 1407 1400 1393 1389 1388 1385 1382 1379 1376 1371 1363 1360 1357 1352 1346 1343
1504 1502 1501 1500 1498 1497 1495 1493 1491 1488 1484 1481 1477 1474 1470 1466 1462 1458 1454 1449 1444 1439 1433 1427 1424 1419 1415 1412 1410 1407 1404 1400 1397 1391 1388 1384 1377 1371 1365 1359 1356 1351 1344
1503 1502 1501 1499 1497 1496 1494 1492 1489 1486 1483 1481 1477 1474 1470 1466 1462 1458 1454 1450 1444 1439 1435 1431 1427 1424 1422 1418 1415 1411 1408 1404 1400 1396 1391 1384 1377 1371 1366 1361 1355 1350 1345
1502 1501 1500 1499 1497 1495 1493 1491 1488 1485 1482 1479 1476 1472 1468 1465 1461 1456 1451 1447 1444 1441 1437 1433 1431 1428 1424 1421 1418 1414 1410 1405 1400 1395 1390 1383 1376 1370 1367 1363 1357 1352 1345
1501 1500 1499 1498 1497 1495 1493 1490 1488 1485 1482 1479 1475 1471 1468 1465 1460 1455 1451 1447 1443 1440 1437 1434 1432 1429 1427 1423 1418 1414 1411 1406 1400 1394 1389 1383 1379 1375 1370 1365 1358 1353 1347
1500 1499 1498 1497 1495 1494 1491 1489 1486 1484 1481 1478 1475 1471 1468 1464 1460 1456 1452 1448 1444 1441 1437 1433 1430 1427 1424 1420 1416 1412 1408 1403 1399 1394 1389 1384 1380 1373 1369 1365 1359 1353 1348
1497 1496 1495 1494 1492 1491 1489 1487 1485 1482 1480 1477 1474 1470 1467 1464 1460 1457 1453 1449 1446 1442 1438 1435 1431 1427 1423 1419 1415 1411 1408 1404 1400 1395 1390 1384 1379 1374 1368 1361 1359 1351 1346
1493 1492 1491 1490 1489 1487 1486 1483 1481 1479 1476 1474 1471 1469 1466 1462 1459 1456 1452 1449 1446 1443 1439 1436 1432 1429 1425 1420 1416 1412 1407 1403 1398 1394 1389 1383 1379 1374 1367 1362 1355 1351 1346
1489 1488 1487 1486 1484 1482 1481 1479 1478 1475 1473 1471 1468 1466 1463 1460 1457 1454 1451 1448 1445 1442 1438 1435 1431 1427 1424 1420 1416 1412 1407 1402 1397 1392 1387 1382 1376 1370 1366 1361 1357 1350 1345
1484 1484 1483 1481 1480 1479 1477 1475 1473 1471 1469 1467 1465 1462 1460 1457 1455 1452 1449 1446 1443 1440 1437 1433 1430 1426 1423 1419 1415 1410 1405 1401 1396 1391 1387 1383 1378 1373 1369 1363 1357 1352 1348
1480 1479 1478 1477 1476 1475 1473 1472 1470 1468 1466 1464 1462 1459 1457 1455 1452 1449 1446 1443 1440 1437 1434 1431 1427 1424 1420 1417 1413 1409 1404 1400 1395 1389 1384 1379 1374 1369 1364 1359 1355 1349 1343
Wind_Speed
19 21 23 24 25 26 27 28 29 29 29 31 30 32 32 30 29 31 28 23 23 24 29 34 23 31 37 38 49 54 46 49 50 43 32 33 45 41 33 28 32 33 35
18 20 22 23 24 25 26 27 28 29 30 30 31 30 30 31 32 29 29 24 16 16 20 30 31 21 32 33 37 40 46 47 61 57 42 41 40 40 36 33 32 37 35
17 18 22 24 25 25 26 26 27 27 29 30 32 34 34 32 31 29 27 23 14 11 9 12 26 25 27 29 36 40 41 45 51 56 55 46 45 44 42 38 36 37 32
15 17 22 24 26 25 25 26 27 28 29 31 32 33 36 35 32 29 26 24 18 13 11 6 6 17 18 26 32 37 40 41 41 48 46 44 47 47 46 43 40 40 36
16 18 21 24 24 23 24 24 25 27 29 31 32 33 37 38 37 32 29 28 24 20 19 14 9 5 4 14 22 31 39 42 43 44 43 38 40 40 46 45 41 41 40
16 18 20 23 24 24 23 23 24 26 28 29 32 34 37 38 35 33 32 32 31 28 25 25 18 12 9 5 5 7 23 38 38 40 40 40 39 44 46 43 41 40 35
16 19 21 24 25 24 23 23 24 25 26 29 32 34 36 39 37 35 36 37 37 38 36 34 30 28 19 13 8 6 4 7 19 28 16 28 28 33 45 42 37 35 33
18 20 21 23 24 24 23 23 24 25 27 29 30 33 35 37 37 37 36 37 38 39 40 41 39 37 32 24 18 17 14 9 6 4 7 19 16 27 33 37 40 37 35
19 21 21 21 24 24 25 25 25 26 27 30 32 34 36 37 37 37 37 38 39 40 40 39 40 40 37 32 26 26 22 18 13 8 5 3 10 12 16 25 28 34 33
19 20 20 21 24 25 24 25 25 26 27 28 31 33 36 37 39 39 38 38 37 36 36 37 37 37 37 37 34 31 31 27 20 14 10 6 3 6 5 5 8 16 22
16 18 19 21 23 24 24 24 26 27 28 29 31 33 34 37 37 38 38 39 37 35 36 37 36 35 32 32 34 36 33 27 25 23 20 16 12 8 3 4 8 5 10
15 17 19 21 22 24 24 24 25 27 29 30 31 32 34 35 36 36 36 36 34 34 36 35 34 33 34 34 34 31 29 30 30 30 29 27 25 22 17 11 7 6 7
14 17 19 20 22 23 24 26 27 29 29 31 32 32 34 34 34 33 33 33 33 33 33 32 32 33 34 35 36 34 34 35 35 35 32 30 29 27 24 18 15 12 2
14 16 18 19 20 22 23 25 27 28 28 28 29 30 31 32 33 34 32 32 30 30 31 32 33 34 35 36 36 38 39 38 37 35 33 31 29 28 28 28 26 22 15
12 14 15 17 18 20 21 23 23 25 26 26 26 26 27 29 28 28 30 31 31 30 29 31 34 36 38 38 39 39 38 38 38 36 36 35 34 32 31 30 29 28 26
9 11 12 14 15 16 17 18 19 20 20 21 21 22 23 23 24 26 26 27 26 28 30 34 35 36 38 39 39 39 39 38 37 35 34 34 34 34 31 30 29 29 27
7 9 11 12 14 15 16 16 16 18 19 20 21 21 21 22 23 23 24 25 27 28 30 33 33 35 35 34 34 34 33 32 31 31 32 32 32 31 31 28 27 26 28
6 8 10 12 14 15 16 18 19 20 21 20 21 21 23 24 25 25 25 25 28 30 31 31 30 31 31 31 31 31 30 29 30 30 29 30 31 32 31 30 27 30 28
4 6 8 10 12 13 15 16 17 19 20 22 23 24 25 25 26 27 29 30 30 30 30 30 29 29 28 28 28 28 29 29 29 29 29 30 31 32 31 30 29 29 27
4 6 7 9 11 12 14 15 17 18 19 20 22 24 24 25 26 28 29 29 30 30 29 29 28 28 27 28 28 28 28 28 29 30 30 30 29 28 29 30 28 26 25
7 8 9 10 11 12 14 15 16 18 18 19 20 21 22 23 24 25 26 26 27 28 29 29 29 29 29 30 29 29 29 30 29 29 29 30 30 30 29 28 29 26 24
11 10 11 12 13 14 14 15 16 17 17 18 18 19 19 20 20 21 22 22 23 24 25 26 26 27 29 29 29 29 29 29 29 30 30 30 30 29 29 28 29 27 25
13 13 13 13 14 15 15 16 16 17 18 18 18 18 18 18 19 19 20 20 20 21 21 22 23 24 25 25 27 28 29 29 29 29 30 29 29 28 28 29 27 29 28
14 15 15 15 16 16 16 16 16 16 16 17 17 17 17 17 18 18 18 18 18 18 19 20 21 22 24 24 24 25 25 27 28 28 28 28 28 27 26 25 26 26 26
15 15 16 16 16 16 17 16 16 15 15 16 16 16 16 17 17 18 19 19 18 18 18 18 19 20 20 21 22 23 24 24 25 26 26 25 25 25 24 23 24 24 22
14 16 16 16 16 16 15 16 15 15 15 15 15 15 15 16 17 18 19 19 19 18 19 19 20 20 20 20 20 21 21 22 23 24 25 25 25 25 25 24 23 23 22
Wind_Direction
11 14 12 12 12 11 10 8 8 6 5 4 4 2 1 359 352 346 336 320 307 290 268 247 261 251 248 249 243 234 238 237 243 246 243 251 240 239 234 233 232 231 238
10 13 14 14 13 12 12 11 10 9 8 10 11 11 10 9 9 1 349 332 321 312 286 261 252 259 254 253 252 246 246 239 234 251 244 245 237 233 235 234 238 239 240
9 13 17 17 15 13 11 13 13 14 16 15 17 18 19 15 13 10 6 349 327 349 337 288 261 269 264 254 256 251 245 242 236 238 241 240 239 228 231 235 238 232 235
9 16 21 19 17 14 12 12 14 18 20 22 24 26 27 19 16 17 17 15 0 10 27 17 294 268 278 257 250 252 252 240 227 219 226 237 245 237 235 238 232 231 231
9 17 22 21 17 16 16 16 17 20 24 26 30 32 34 29 22 18 21 23 23 17 25 37 30 27 346 261 267 249 245 243 231 229 227 227 237 239 237 233 233 234 233
12 20 22 22 19 17 19 20 23 26 28 30 33 35 40 36 33 28 29 34 31 32 30 25 33 33 45 56 47 328 246 230 225 231 225 216 223 236 239 230 229 228 235
19 25 25 22 21 23 22 23 25 29 31 33 35 38 39 38 39 35 37 37 39 39 36 32 29 25 33 42 47 39 20 225 226 221 202 196 203 214 232 233 228 228 228
27 27 26 24 24 27 29 30 30 31 30 32 35 38 40 42 39 38 37 43 41 42 42 39 33 29 25 29 29 41 53 39 31 195 246 203 205 203 198 217 233 230 228
31 29 28 29 29 31 33 36 37 37 35 35 34 36 39 39 41 40 38 38 38 40 41 42 38 33 28 25 28 27 36 46 52 54 46 335 280 252 220 204 214 213 217
35 33 33 36 35 36 37 42 45 44 42 43 41 41 39 37 37 37 37 38 41 40 42 41 43 38 34 28 31 32 32 24 20 34 48 57 50 312 295 240 234 213 232
38 40 42 43 42 41 41 44 47 49 49 48 47 44 43 42 39 36 35 36 37 38 39 41 39 39 40 41 42 39 37 36 29 27 27 31 35 24 339 298 287 244 250
46 47 49 48 47 47 45 46 48 49 48 48 47 48 45 43 38 37 37 37 36 39 41 40 42 39 39 43 46 46 47 45 45 42 33 29 29 20 14 0 345 282 273
56 53 51 49 47 45 43 44 42 42 42 42 42 41 40 40 41 39 38 36 36 40 44 42 40 38 39 40 41 37 36 39 41 41 36 34 31 28 21 19 12 5 325
62 58 53 47 45 42 39 37 35 35 34 31 32 34 34 33 32 32 32 34 34 33 34 36 38 40 39 38 37 35 36 35 35 33 30 27 28 26 22 18 16 15 9
63 58 54 46 39 35 34 32 31 30 26 25 26 24 26 26 29 26 23 22 26 27 30 30 30 31 32 32 32 32 31 29 28 26 23 21 21 22 23 17 12 15 13
61 54 49 45 41 38 33 28 27 27 25 25 24 23 23 23 20 17 19 19 19 21 26 30 31 30 28 26 26 26 23 22 21 21 20 16 16 17 15 13 13 13 7
50 40 33 28 25 21 21 23 25 20 17 18 18 18 17 18 17 17 16 14 16 18 25 27 26 26 25 25 23 22 21 20 16 16 14 13 13 13 12 9 6 3 3
29 21 15 9 7 5 4 5 3 2 4 7 8 9 9 9 8 9 10 9 15 19 24 25 24 22 20 19 17 16 16 15 13 13 12 11 9 9 8 4 2 3 358
357 357 353 351 349 350 350 351 351 353 354 355 356 357 1 2 1 1 3 7 11 14 16 17 17 17 17 16 13 12 9 8 8 8 8 8 8 5 3 1 357 358 356
315 326 330 332 332 333 335 338 340 342 344 345 346 348 350 351 352 355 357 359 1 4 7 8 8 8 8 8 8 8 6 4 3 3 4 4 3 3 359 356 356 348 349
293 304 312 315 316 318 322 326 329 331 334 337 340 340 340 343 347 351 352 353 353 355 356 358 359 359 359 360 1 2 1 1 0 0 0 358 356 356 356 354 352 349 343
284 291 301 307 311 314 317 320 322 323 327 330 333 335 336 338 340 343 345 345 346 347 347 349 351 352 353 353 355 355 357 358 357 355 355 354 352 351 350 352 348 348 345
282 288 294 301 305 307 311 315 317 320 322 325 326 329 332 335 336 337 338 338 338 339 340 340 341 342 344 346 347 349 350 351 353 352 350 350 350 348 347 346 347 343 343
283 286 290 297 303 307 309 311 313 315 317 319 322 326 330 333 334 334 333 333 332 333 334 335 336 336 337 339 341 343 344 345 345 346 346 346 348 348 345 343 343 343 341
283 284 287 292 298 302 305 308 311 311 315 318 318 321 326 331 334 335 335 334 332 332 333 333 333 332 332 333 334 336 338 340 340 341 344 346 347 346 345 343 343 342 341
285 287 286 287 292 298 303 305 307 308 313 317 319 320 322 326 329 330 332 334 333 331 329 330 331 330 329 328 330 331 333 335 337 340 342 345 347 347 345 345 345 347 346